Tiempo atmosférico en la estación meteorológica de Bunyola, Sierra de Alfabia, Illes Balears (1030 m.)



Fecha
DESCASC
Temp. máxima en grados centígrados (hora)
DESCASC
Temp. mínima en grados centígrados (hora)
DESCASC
Temp. media en grados centígrados
DESCASC
Racha de viento máxima en m/sg (hora)
DESCASC
Velocidad máxima media en intervalos de 10 minutos(hora)
DESCASC
Precipitaciones diarias en mm
DESCASC
Precipitaciones de 00:00 a 06:00 en mm
DESCASC
Precipitaciones de 06:00 a 12:00 en mm
DESCASC
Precipitaciones de 12:00 a 18:00 en mm
DESCASC
Precipitaciones de 18:00 a 24:00 en mm
DESCASC

Gráficas

Temp. máximas Temp. mínimas Temp. medias Precipitaciones Rachas de viento máximas Velocidades máximas media en intervalos de 10 minutos

Datos horarios

Fecha y hora oficial Temperatura (ºC) Velocidad del viento (km/h) Dirección del viento Racha (km/h) Dirección de racha Precipitación (mm) Presión (hPa) Tendencia (hPa) Humedad (%)
2018-10-19 23:00:00 12.9 21 Sudeste 28 Sudeste 0 -- -- --
2018-10-19 22:00:00 13.6 21 Sudeste 28 Sudeste 0 -- -- --
2018-10-19 21:00:00 14.2 21 Sudeste 34 Sudeste 0 -- -- --
2018-10-19 20:00:00 14 26 Sudeste 39 Sudeste 0.9 -- -- --
2018-10-19 19:00:00 13 27 Sudeste 44 Este 27.5 -- -- --
2018-10-19 18:00:00 14.3 19 Sudeste 37 Sudeste 11.2 -- -- --
2018-10-19 17:00:00 14.6 18 Sudeste 37 Este 0 -- -- --
2018-10-19 16:00:00 14.7 16 Sudeste 33 Sur 0 -- -- --
2018-10-19 15:00:00 15 18 Sudeste 39 Sudeste 0 -- -- --
2018-10-19 14:00:00 14.5 22 Sudeste 45 Sur 0 -- -- --
2018-10-19 13:00:00 14.7 25 Sur 51 Sur 2.4 -- -- --
2018-10-19 12:00:00 14.6 23 Sudeste 48 Sur 2.6 -- -- --
2018-10-19 11:00:00 14.1 28 Sudeste 55 Sudeste 3.7 -- -- --
2018-10-19 10:00:00 14.1 31 Sudeste 54 Sudeste 7 -- -- --
2018-10-19 09:00:00 13.8 24 Sudeste 47 Sudeste 4.6 -- -- --
2018-10-19 08:00:00 12.5 31 Sudeste 60 Sudeste 7.5 -- -- --
2018-10-19 07:00:00 13.4 20 Este 32 Este 0.4 -- -- --
2018-10-19 06:00:00 13.6 17 Sudeste 32 Este 0 -- -- --
2018-10-19 05:00:00 13.6 22 Sudeste 33 Sudeste 0 -- -- --
2018-10-19 04:00:00 13.1 18 Sudeste 40 Sudeste 0 -- -- --
2018-10-19 03:00:00 13 28 Sur 44 Sur 0 -- -- --
2018-10-19 02:00:00 13.4 27 Sur 55 Sur 0.1 -- -- --
2018-10-19 01:00:00 13.5 33 Sudeste 58 Sudeste 0 -- -- --
2018-10-19 00:00:00 13.1 31 Sudeste 49 Sudeste 0.1 -- -- --
2018-10-18 23:00:00 12.6 32 Sudeste 51 Sur 2.9 -- -- --
2018-10-18 22:00:00 13.2 23 Sudeste 39 Sudeste 5.8 -- -- --
2018-10-18 21:00:00 13.1 14 Sudeste 49 Este 11.7 -- -- --
2018-10-18 20:00:00 14.1 26 Este 49 Este 1.1 -- -- --
2018-10-18 19:00:00 14 21 Este 45 Este 0.7 -- -- --
2018-10-18 18:00:00 14.2 15 Este 41 Este 0 -- -- --
2018-10-18 17:00:00 14.6 15 Nordeste 39 Este 0 -- -- --
2018-10-18 16:00:00 14.4 15 Este 38 Sudeste 0.2 -- -- --
2018-10-18 15:00:00 14.5 22 Este 48 Sudeste 0 -- -- --
2018-10-18 14:00:00 14.1 28 Este 47 Sudeste 0 -- -- --
2018-10-18 13:00:00 14 32 Sudeste 56 Este 0 -- -- --
2018-10-18 12:00:00 13.2 33 Este 54 Este 0.7 -- -- --
2018-10-18 11:00:00 13 17 Este 34 Este 0.5 -- -- --
2018-10-18 10:00:00 13.4 17 Nordeste 35 Nordeste 0 -- -- --
2018-10-18 09:00:00 12.8 22 Nordeste 32 Nordeste 0.7 -- -- --
2018-10-18 08:00:00 12.6 19 Este 30 Este 0 -- -- --
2018-10-18 07:00:00 12.6 16 Nordeste 33 Nordeste 0 -- -- --
2018-10-18 06:00:00 12.3 18 Nordeste 33 Nordeste 0 -- -- --
2018-10-18 05:00:00 12.5 22 Norte 38 Noroeste 0 -- -- --
2018-10-18 04:00:00 12.5 21 Norte 37 Norte 0 -- -- --
2018-10-18 03:00:00 12.3 15 Norte 74 Noroeste 0 -- -- --
2018-10-18 02:00:00 12.3 16 Norte 27 Nordeste 0 -- -- --
2018-10-18 01:00:00 12.5 17 Nordeste 29 Nordeste 0.2 -- -- --
2018-10-18 00:00:00 12.4 13 Nordeste 23 Nordeste 0 -- -- --
2018-10-17 23:00:00 12.4 13 Nordeste 32 Nordeste 0 -- -- --
2018-10-17 22:00:00 12.2 15 Nordeste 29 Nordeste 0 -- -- --
2018-10-17 21:00:00 12.3 21 Nordeste 29 Nordeste 0 -- -- --
2018-10-17 20:00:00 12.2 16 Este 23 Este 0 -- -- --
2018-10-17 19:00:00 12.3 15 Norte 28 Noroeste 0 -- -- --
2018-10-17 18:00:00 12.4 22 Norte 44 Noroeste 0.2 -- -- --
2018-10-17 17:00:00 13.2 21 Noroeste 33 Norte 0.3 -- -- --
2018-10-17 16:00:00 12.7 18 Norte 38 Norte 0.2 -- -- --
2018-10-17 15:00:00 12.7 27 Norte 42 Noroeste 0.1 -- -- --
2018-10-17 14:00:00 12.8 22 Norte 35 Norte 0.4 -- -- --
2018-10-17 13:00:00 13.8 15 Norte 26 Noroeste 0 -- -- --
2018-10-17 12:00:00 13.4 14 Norte 32 Noroeste 0.1 -- -- --
2018-10-17 11:00:00 12.9 16 Noroeste 28 Noroeste 0 -- -- --
2018-10-17 10:00:00 11.9 21 Norte 36 Norte 0 -- -- --
2018-10-17 09:00:00 11.3 26 Norte 35 Norte 0 -- -- --
2018-10-17 08:00:00 10.6 19 Norte 34 Norte 0 -- -- --
2018-10-17 07:00:00 10.7 21 Noroeste 32 Noroeste 0 -- -- --
2018-10-17 06:00:00 10.8 21 Norte 31 Norte 0 -- -- --
2018-10-17 05:00:00 10.9 18 Norte 26 Noroeste 0 -- -- --
2018-10-17 04:00:00 11.1 14 Noroeste 18 Noroeste 0 -- -- --
2018-10-17 03:00:00 11.6 9 Nordeste 15 Norte 0 -- -- --
2018-10-17 02:00:00 11.4 9 Nordeste 13 Nordeste 0 -- -- --
2018-10-17 01:00:00 11.5 5 Nordeste 13 Norte 0 -- -- --
2018-10-17 00:00:00 12 12 Norte 16 Noroeste 0 -- -- --
2018-10-16 23:00:00 12 3 Nordeste 14 Este 0 -- -- --
2018-10-16 22:00:00 12 9 Este 14 Este 0 -- -- --
2018-10-16 21:00:00 12.8 8 Nordeste 20 Este 0 -- -- --
2018-10-16 20:00:00 11.8 18 Este 22 Este 0 -- -- --
2018-10-16 19:00:00 12.2 15 Sudeste 20 Sudeste 0 -- -- --
2018-10-16 18:00:00 12.4 9 Sudeste 14 Sur 5.6 -- -- --
2018-10-16 17:00:00 12.7 7 Sur 17 Sur 0.9 -- -- --
2018-10-16 16:00:00 14 5 Sudoeste 15 Sur 0 -- -- --
2018-10-16 15:00:00 14 9 Sur 19 Sur 0 -- -- --
2018-10-16 14:00:00 14.4 5 Sur 16 Sudeste 0 -- -- --
2018-10-16 13:00:00 15.2 8 Sur 19 Sur 0 -- -- --
2018-10-16 12:00:00 14.1 9 Sudeste 18 Sudeste 0 -- -- --
2018-10-16 11:00:00 13.5 17 Sudeste 28 Sudeste 0 -- -- --
2018-10-16 10:00:00 12.6 21 Sudeste 28 Sudeste 0 -- -- --
2018-10-16 09:00:00 11.2 19 Sudeste 23 Sudeste 0 -- -- --
2018-10-16 08:00:00 10.2 15 Sudeste 18 Sudeste 0 -- -- --
2018-10-16 07:00:00 9.7 14 Sudeste 17 Sudeste 0 -- -- --
2018-10-16 06:00:00 10.4 9 Sur 12 Sur 0 -- -- --
2018-10-16 05:00:00 10.5 4 Nordeste 7 Nordeste 0 -- -- --
2018-10-16 04:00:00 10.5 6 Sur 13 Sudoeste 0 -- -- --
2018-10-16 03:00:00 10.6 8 Sudoeste 16 Sudoeste 0 -- -- --
2018-10-16 02:00:00 10.7 11 Sudoeste 20 Sudoeste 0 -- -- --
2018-10-16 01:00:00 10.7 15 Sudoeste 23 Sudoeste 0 -- -- --
2018-10-16 00:00:00 10.2 15 Sur 24 Sudoeste 0 -- -- --
2018-10-15 23:00:00 10.1 19 Sur 25 Sur 0 -- -- --
2018-10-15 22:00:00 9.8 16 Sur 23 Sur 0 -- -- --
2018-10-15 21:00:00 9.8 19 Sur 28 Sur 0 -- -- --
2018-10-15 20:00:00 10 20 Sur 28 Sur 0 -- -- --
2018-10-15 19:00:00 10.4 19 Sur 27 Sur 0 -- -- --
2018-10-15 18:00:00 10.9 18 Sur 30 Sur 0 -- -- --
2018-10-15 17:00:00 11.2 11 Sur 24 Sudoeste 0 -- -- --
2018-10-15 16:00:00 10.7 14 Sudoeste 30 Oeste 1 -- -- --
2018-10-15 15:00:00 10.9 7 Sur 18 Sudoeste 0.4 -- -- --
2018-10-15 14:00:00 11.1 13 Sudoeste 28 Oeste 0.7 -- -- --
2018-10-15 13:00:00 11.3 14 Oeste 28 Oeste 0.1 -- -- --
2018-10-15 12:00:00 10.7 18 Noroeste 31 Oeste 1.6 -- -- --
2018-10-15 11:00:00 10.4 14 Oeste 36 Oeste 0.2 -- -- --
2018-10-15 10:00:00 10.3 24 Oeste 42 Sur 1.1 -- -- --
2018-10-15 09:00:00 9.7 21 Sur 49 Sur 0.1 -- -- --
2018-10-15 08:00:00 9.3 30 Sur 53 Sur 0 -- -- --
2018-10-15 07:00:00 9.3 29 Sur 46 Sur 0 -- -- --
2018-10-15 06:00:00 9.6 23 Sur 43 Sur 0 -- -- --
2018-10-15 05:00:00 10.4 17 Sur 37 Sudoeste 0 -- -- --
2018-10-15 04:00:00 10.8 19 Sur 44 Sur 0 -- -- --
2018-10-15 03:00:00 11.8 23 Sur 41 Sur 0 -- -- --
2018-10-15 02:00:00 11.9 23 Sur 35 Sur 0 -- -- --
2018-10-15 01:00:00 13.6 21 Sur 89 Sur 13.3 -- -- --
2018-10-15 00:00:00 15.5 51 Sur 81 Sur 0.1 -- -- --
2018-10-14 23:00:00 15 55 Sur 85 Sur 0.2 -- -- --
2018-10-14 22:00:00 15 50 Sur 76 Sur 1.1 -- -- --
2018-10-14 21:00:00 14.2 43 Sur 78 Sur 0.4 -- -- --
2018-10-14 20:00:00 14.6 42 Sur 74 Sur 0 -- -- --
2018-10-14 19:00:00 14.3 40 Sur 65 Sur 0 -- -- --
2018-10-14 18:00:00 14.7 39 Sur 105 Sur 0 -- -- --
2018-10-14 17:00:00 15.2 35 Sur 59 Sur 0 -- -- --
2018-10-14 16:00:00 16.4 33 Sur 54 Sur 0 -- -- --
2018-10-14 15:00:00 17.5 33 Sur 58 Sudeste 0 -- -- --
2018-10-14 14:00:00 16 36 Sur 57 Sudoeste 0 -- -- --
2018-10-14 13:00:00 15.4 32 Sur 66 Sur 0 -- -- --
2018-10-14 12:00:00 14.6 35 Sur 54 Sur 0 -- -- --
2018-10-14 11:00:00 14.3 33 Sur 51 Sur 0 -- -- --
2018-10-14 10:00:00 14 33 Sur 52 Sur 0 -- -- --
2018-10-14 09:00:00 13.7 33 Sur 50 Sur 0 -- -- --
2018-10-14 08:00:00 13.6 35 Sur 51 Sur 0.1 -- -- --
2018-10-14 07:00:00 13.5 34 Sudeste 46 Sudeste 0 -- -- --
2018-10-14 06:00:00 13.2 35 Sudeste 44 Sudeste 0 -- -- --
2018-10-14 05:00:00 12.6 32 Sudeste 40 Sudeste 0 -- -- --
2018-10-14 04:00:00 13 33 Sur 41 Sur 0 -- -- --
2018-10-14 03:00:00 13.3 31 Sudeste 39 Sur 0 -- -- --
2018-10-14 02:00:00 13.4 29 Sur 36 Sur 0 -- -- --
2018-10-14 01:00:00 13.7 28 Sudeste 35 Sudeste 0 -- -- --
2018-10-14 00:00:00 14.4 27 Sudeste 36 Sudeste 0 -- -- --
2018-10-13 23:00:00 14.6 27 Sudeste 33 Sudeste 0 -- -- --
2018-10-13 22:00:00 14.8 23 Sudeste 32 Sudeste 0 -- -- --
2018-10-13 21:00:00 15.2 23 Sudeste 31 Sudeste 0 -- -- --
2018-10-13 20:00:00 15.7 19 Sur 30 Sur 0 -- -- --
2018-10-13 19:00:00 16.1 18 Sur 27 Sur 0 -- -- --
2018-10-13 18:00:00 16.4 15 Sur 23 Sur 0 -- -- --
2018-10-13 17:00:00 17.7 12 Sur 21 Sur 0 -- -- --
2018-10-13 16:00:00 19.4 9 Sur 19 Sur 0 -- -- --
2018-10-13 15:00:00 19.5 9 Sur 23 Sudeste 0 -- -- --
2018-10-13 14:00:00 18.9 12 Sur 22 Sur 0 -- -- --
2018-10-13 13:00:00 19.1 9 Sur 27 Sur 0 -- -- --
2018-10-13 12:00:00 17.3 17 Sur 25 Sudeste 0 -- -- --
2018-10-13 11:00:00 18.7 11 Sur 22 Sudeste 0 -- -- --
2018-10-13 10:00:00 17.7 15 Sudeste 24 Sudeste 0 -- -- --
2018-10-13 09:00:00 16.4 17 Sudeste 21 Sudeste 0 -- -- --
2018-10-13 08:00:00 15.1 12 Sudeste 14 Sudeste 0 -- -- --
2018-10-13 07:00:00 16.1 7 Este 12 Este 0 -- -- --
2018-10-13 06:00:00 16 9 Este 11 Este 0 -- -- --
2018-10-13 05:00:00 15.8 0 Calma 5 Nordeste 0 -- -- --
2018-10-13 04:00:00 16.8 5 Nordeste 7 Norte 0 -- -- --
2018-10-13 03:00:00 16.7 0 Calma 4 Sur 0 -- -- --
2018-10-13 02:00:00 16.5 0 Calma 3 Sudeste 0 -- -- --
2018-10-13 01:00:00 16.9 0 Calma 5 Sudeste 0 -- -- --
2018-10-13 00:00:00 17.2 0 Calma 5 Sur 0 -- -- --
2018-10-12 23:00:00 17.6 0 Calma 6 Noroeste 0 -- -- --
2018-10-12 22:00:00 17.4 3 Oeste 8 Oeste 0 -- -- --
2018-10-12 21:00:00 17.5 5 Oeste 7 Oeste 0 -- -- --
2018-10-12 20:00:00 17 2 Sur 15 Sudeste 0 -- -- --
2018-10-12 19:00:00 17 14 Sudeste 21 Sur 0 -- -- --
2018-10-12 18:00:00 17.6 15 Sur 21 Sur 0 -- -- --
2018-10-12 17:00:00 18.7 9 Sur 14 Sur 0 -- -- --
2018-10-12 16:00:00 19.3 5 Sur 12 Sudoeste 0 -- -- --
2018-10-12 15:00:00 20.6 5 Oeste 12 Oeste 0 -- -- --
2018-10-12 14:00:00 20.4 5 Sudoeste 12 Sudoeste 0 -- -- --
2018-10-12 13:00:00 20.2 7 Sur 12 Sudoeste 0 -- -- --
2018-10-12 12:00:00 20.6 2 Sudeste 17 Sudeste 0 -- -- --
2018-10-12 11:00:00 19.1 12 Sudeste 17 Sur 0 -- -- --
2018-10-12 10:00:00 18.6 12 Sur 15 Sur 0 -- -- --
2018-10-12 09:00:00 16.3 9 Sudeste 18 Sudeste 0 -- -- --
2018-10-12 08:00:00 16.2 4 Sudoeste 12 Sudeste 0 -- -- --
2018-10-12 07:00:00 16.1 8 Sudoeste 13 Oeste 0 -- -- --
2018-10-12 06:00:00 16.7 8 Sur 12 Sudoeste 0 -- -- --
2018-10-12 05:00:00 16.2 5 Sudoeste 10 Noroeste 0 -- -- --
2018-10-12 04:00:00 16.9 5 Oeste 10 Oeste 0 -- -- --
2018-10-12 03:00:00 16.5 6 Oeste 12 Oeste 0 -- -- --
2018-10-12 02:00:00 17 10 Sur 18 Sur 0 -- -- --
2018-10-12 01:00:00 16.8 13 Sur 17 Sur 0 -- -- --
2018-10-12 00:00:00 16.9 14 Sur 18 Sur 0 -- -- --
2018-10-11 23:00:00 16.2 14 Sudeste 22 Sudeste 0 -- -- --
2018-10-11 22:00:00 15.7 15 Sur 18 Sur 0 -- -- --
2018-10-11 21:00:00 15 13 Noroeste 22 Noroeste 0 -- -- --
2018-10-11 20:00:00 15.8 21 Sudeste 26 Sur 0 -- -- --
2018-10-11 19:00:00 16.4 18 Sudeste 23 Sudeste 0 -- -- --
2018-10-11 18:00:00 16.9 19 Sur 26 Sur 0 -- -- --
2018-10-11 17:00:00 18 15 Sur 26 Sur 0 -- -- --
2018-10-11 16:00:00 18.4 10 Sur 17 Sur 0 -- -- --
2018-10-11 15:00:00 19.2 6 Sur 23 Sur 0 -- -- --
2018-10-11 14:00:00 18.4 15 Sur 26 Sur 0 -- -- --
2018-10-11 13:00:00 18.6 15 Sur 23 Sur 0 -- -- --
2018-10-11 12:00:00 18.2 11 Sur 18 Sur 0 -- -- --
2018-10-11 11:00:00 18.8 2 Oeste 13 Sudeste 0 -- -- --
2018-10-11 10:00:00 17.7 9 Sur 13 Sur 0 -- -- --
2018-10-11 09:00:00 17.1 9 Sur 12 Sudoeste 0 -- -- --
2018-10-11 08:00:00 15.3 8 Sudoeste 10 Sudoeste 0 -- -- --
2018-10-11 07:00:00 15.4 4 Oeste 7 Oeste 0 -- -- --
2018-10-11 06:00:00 15.3 6 Oeste 13 Oeste 0 -- -- --
2018-10-11 05:00:00 15.1 8 Oeste 15 Oeste 0 -- -- --
2018-10-11 04:00:00 15.4 10 Noroeste 18 Oeste 0 -- -- --
2018-10-11 03:00:00 15.2 8 Oeste 19 Sudoeste 0 -- -- --
2018-10-11 02:00:00 15.2 9 Oeste 21 Oeste 0 -- -- --
2018-10-11 01:00:00 15 15 Oeste 22 Oeste 0 -- -- --
2018-10-11 00:00:00 14.6 13 Oeste 25 Oeste 0 -- -- --
2018-10-10 23:00:00 14.5 16 Sudoeste 22 Sudoeste 0 -- -- --
2018-10-10 22:00:00 14.7 13 Sudoeste 22 Sudoeste 0 -- -- --
2018-10-10 21:00:00 14.1 7 Sudoeste 13 Sur 0 -- -- --
2018-10-10 20:00:00 13.8 4 Norte 22 Sudoeste 0 -- -- --
2018-10-10 19:00:00 14.1 3 Oeste 27 Sur 0.2 -- -- --
2018-10-10 18:00:00 13.7 12 Sudeste 40 Sur 1 -- -- --
2018-10-10 17:00:00 15.4 10 Sudeste 36 Sur 0 -- -- --
2018-10-10 16:00:00 15.5 21 Sur 34 Sur 0 -- -- --
2018-10-10 15:00:00 15.1 20 Sur 43 Sudeste 0 -- -- --
2018-10-10 14:00:00 15.1 26 Sur 44 Sur 0 -- -- --
2018-10-10 13:00:00 14.9 28 Sur 57 Sur 0.1 -- -- --
2018-10-10 12:00:00 14.7 27 Sur 42 Sur 0 -- -- --
2018-10-10 11:00:00 14.6 24 Sur 38 Sur 0 -- -- --
2018-10-10 10:00:00 13.6 25 Sur 42 Sur 0 -- -- --
2018-10-10 09:00:00 13.4 28 Sur 47 Sur 0 -- -- --
2018-10-10 08:00:00 13.3 32 Sur 54 Sur 0 -- -- --
2018-10-10 07:00:00 13.1 31 Sur 49 Sur 0 -- -- --
2018-10-10 06:00:00 12.6 30 Sur 44 Sur 0 -- -- --
2018-10-10 05:00:00 13.3 26 Sur 43 Sur 0 -- -- --
2018-10-10 04:00:00 14.4 22 Sur 39 Sur 0 -- -- --
2018-10-10 03:00:00 14 20 Sur 40 Sur 0 -- -- --
2018-10-10 02:00:00 14.2 24 Sur 40 Sur 0 -- -- --
2018-10-10 01:00:00 13.9 19 Sur 45 Sur 0 -- -- --
2018-10-10 00:00:00 13.6 32 Sur 49 Sur 0 -- -- --
2018-10-09 23:00:00 13.3 29 Sur 41 Sudeste 0 -- -- --
2018-10-09 22:00:00 12.9 28 Sur 37 Sur 0 -- -- --
2018-10-09 21:00:00 12.3 22 Sudeste 31 Sudeste 1.4 -- -- --
2018-10-09 20:00:00 12.7 19 Sudeste 28 Sudeste 0.9 -- -- --
2018-10-09 19:00:00 11.1 20 Norte 38 Norte 1.9 -- -- --
2018-10-09 18:00:00 12 28 Norte 38 Norte 8.7 -- -- --
2018-10-09 17:00:00 14.2 11 Sur 34 Sur 2.8 -- -- --
2018-10-09 16:00:00 14.4 14 Sur 31 Sudeste 0.2 -- -- --
2018-10-09 15:00:00 16.5 17 Sudeste 37 Sudeste 0 -- -- --
2018-10-09 14:00:00 17 18 Sudeste 38 Sudeste 0 -- -- --
2018-10-09 13:00:00 15 25 Sudeste 42 Sudeste 0 -- -- --
2018-10-09 12:00:00 15.4 23 Sudeste 49 Sur 0 -- -- --
2018-10-09 11:00:00 14.2 22 Sur 40 Sudeste 0 -- -- --
2018-10-09 10:00:00 12.1 28 Sudeste 43 Sudeste 0 -- -- --
2018-10-09 09:00:00 11 26 Sudeste 35 Sudeste 0 -- -- --
2018-10-09 08:00:00 9.4 15 Este 21 Sudeste 0 -- -- --
2018-10-09 07:00:00 10.1 4 Este 14 Noroeste 0 -- -- --
2018-10-09 06:00:00 9.7 4 Noroeste 18 Noroeste 0 -- -- --
2018-10-09 05:00:00 9.5 8 Norte 12 Norte 0 -- -- --
2018-10-09 04:00:00 9.8 5 Norte 8 Noroeste 0 -- -- --
2018-10-09 03:00:00 9.7 7 Noroeste 13 Sur 0 -- -- --
2018-10-09 02:00:00 9.5 12 Sur 14 Sudoeste 0 -- -- --
2018-10-09 01:00:00 9.5 9 Sudoeste 13 Sur 0 -- -- --
2018-10-09 00:00:00 9.6 11 Sur 18 Sudeste 0 -- -- --
2018-10-08 23:00:00 9.6 10 Sur 12 Sur 0 -- -- --
2018-10-08 22:00:00 10 6 Sur 11 Sur 0 -- -- --
2018-10-08 21:00:00 9.3 10 Nordeste 21 Norte 0 -- -- --
2018-10-08 20:00:00 9.6 10 Norte 17 Norte 0 -- -- --
2018-10-08 19:00:00 9.8 9 Norte 39 Nordeste 0 -- -- --
2018-10-08 18:00:00 7.9 26 Nordeste 51 Norte 0.7 -- -- --
2018-10-08 17:00:00 9.3 39 Noroeste 57 Noroeste 0.6 -- -- --
2018-10-08 16:00:00 10 18 Noroeste 31 Norte 0 -- -- --
2018-10-08 15:00:00 11.1 7 Nordeste 19 Nordeste 0 -- -- --
2018-10-08 14:00:00 11.5 14 Noroeste 19 Noroeste 0.1 -- -- --
2018-10-08 13:00:00 11 11 Nordeste 17 Nordeste 0 -- -- --
2018-10-08 12:00:00 11.4 9 Norte 20 Norte 0 -- -- --
2018-10-08 11:00:00 10 15 Nordeste 32 Nordeste 0 -- -- --
2018-10-08 10:00:00 8.2 16 Norte 29 Nordeste 0 -- -- --
2018-10-08 09:00:00 8.1 15 Norte 28 Norte 0.2 -- -- --
2018-10-08 08:00:00 8.6 12 Noroeste 21 Norte 1.6 -- -- --
2018-10-08 07:00:00 9.5 7 Norte 23 Norte 0.6 -- -- --
2018-10-08 06:00:00 9.7 12 Norte 18 Norte 0 -- -- --
2018-10-08 05:00:00 9.6 11 Este 28 Este 0 -- -- --
2018-10-08 04:00:00 9.5 19 Este 31 Este 0 -- -- --
2018-10-08 03:00:00 9.6 17 Este 35 Este 0 -- -- --
2018-10-08 02:00:00 9.5 18 Sudeste 31 Este 0 -- -- --
2018-10-08 01:00:00 9.9 10 Noroeste 22 Norte 0 -- -- --
2018-10-08 00:00:00 9.6 17 Nordeste 23 Nordeste 0.9 -- -- --
2018-10-07 23:00:00 10.6 10 Este 28 Sudeste 0 -- -- --
2018-10-07 22:00:00 10.4 14 Sudeste 24 Este 0 -- -- --
2018-10-07 21:00:00 10.8 16 Sudeste 29 Sudeste 0 -- -- --
2018-10-07 20:00:00 11.6 17 Sudeste 26 Sudeste 0 -- -- --
2018-10-07 19:00:00 13.4 9 Noroeste 17 Noroeste 0 -- -- --
2018-10-07 18:00:00 13.4 4 Sudeste 18 Sudeste 0 -- -- --
2018-10-07 17:00:00 13.6 10 Este 17 Este 0 -- -- --
2018-10-07 16:00:00 15 5 Nordeste 17 Sur 0 -- -- --
2018-10-07 15:00:00 18.2 5 Oeste 25 Oeste 0 -- -- --
2018-10-07 14:00:00 17.1 8 Sudoeste 29 Sur 0 -- -- --
2018-10-07 13:00:00 16 10 Oeste 27 Noroeste 0 -- -- --
2018-10-07 12:00:00 13.7 12 Noroeste 26 Norte 0 -- -- --
2018-10-07 11:00:00 13 22 Norte 62 Norte 0 -- -- --
2018-10-07 10:00:00 13.7 52 Noroeste 84 Noroeste 0 -- -- --
2018-10-07 09:00:00 12.7 67 Noroeste 81 Noroeste 0 -- -- --
2018-10-07 08:00:00 13 42 Noroeste 62 Noroeste 0 -- -- --
2018-10-07 07:00:00 14.9 17 Oeste 38 Oeste 0.1 -- -- --
2018-10-07 06:00:00 14.8 18 Sudoeste 36 Sudoeste 0 -- -- --
2018-10-07 05:00:00 14.8 21 Sur 37 Sur 0 -- -- --
2018-10-07 04:00:00 14.8 26 Sur 39 Sur 0 -- -- --
2018-10-07 03:00:00 14.9 25 Sur 38 Sur 0 -- -- --
2018-10-07 02:00:00 14.2 27 Sur 40 Sudoeste 0 -- -- --
2018-10-07 01:00:00 13.4 23 Sur 38 Sudoeste 0 -- -- --
2018-10-07 00:00:00 13.5 22 Sur 36 Sudoeste 0 -- -- --
2018-10-06 23:00:00 14.1 20 Sur 32 Sudoeste 0 -- -- --
2018-10-06 22:00:00 14 21 Sur 29 Sudoeste 0 -- -- --
2018-10-06 21:00:00 14.4 19 Sur 28 Sur 0 -- -- --
2018-10-06 20:00:00 14.7 18 Sur 29 Sur 0 -- -- --
2018-10-06 19:00:00 15.2 20 Sur 29 Sur 0 -- -- --
2018-10-06 18:00:00 16.1 14 Sur 25 Sudoeste 0 -- -- --
2018-10-06 17:00:00 16.8 13 Sudoeste 28 Sudoeste 0 -- -- --
2018-10-06 16:00:00 16.5 3 Norte 23 Sudoeste 0 -- -- --
2018-10-06 15:00:00 17.6 11 Sur 21 Sudoeste 0 -- -- --
2018-10-06 14:00:00 18.4 11 Sudoeste 33 Sudoeste 0 -- -- --
2018-10-06 13:00:00 18 3 Sudoeste 20 Sudoeste 0 -- -- --
2018-10-06 12:00:00 17.9 8 Sur 18 Sudeste 0 -- -- --
2018-10-06 11:00:00 16 8 Noroeste 14 Noroeste 0 -- -- --
2018-10-06 10:00:00 15.8 8 Noroeste 21 Noroeste 0 -- -- --
2018-10-06 09:00:00 14.8 10 Noroeste 24 Oeste 0 -- -- --
2018-10-06 08:00:00 14.1 13 Noroeste 24 Noroeste 0 -- -- --
2018-10-06 07:00:00 13.4 10 Noroeste 21 Noroeste 0 -- -- --
2018-10-06 06:00:00 13.4 13 Noroeste 22 Noroeste 0.1 -- -- --
2018-10-06 05:00:00 13.3 12 Noroeste 22 Noroeste 0 -- -- --
2018-10-06 04:00:00 13.1 14 Noroeste 19 Noroeste 0 -- -- --
2018-10-06 03:00:00 13.6 10 Oeste 16 Oeste 0 -- -- --
2018-10-06 02:00:00 13.8 12 Oeste 18 Oeste 0 -- -- --
2018-10-06 01:00:00 13.1 7 Sur 11 Sur 0 -- -- --
2018-10-06 00:00:00 12.8 8 Sur 11 Sur 0 -- -- --
2018-10-05 23:00:00 13.2 8 Sur 17 Sudeste 0 -- -- --
2018-10-05 22:00:00 13.2 14 Sudeste 26 Sudeste 0 -- -- --
2018-10-05 21:00:00 13.2 21 Sudeste 29 Sudeste 0 -- -- --
2018-10-05 20:00:00 13.9 20 Sudeste 27 Sudeste 0.1 -- -- --
2018-10-05 19:00:00 14.8 13 Sur 22 Sur 0 -- -- --
2018-10-05 18:00:00 15.1 11 Sur 21 Sur 0 -- -- --
2018-10-05 17:00:00 15.7 9 Sur 17 Sur 0 -- -- --
2018-10-05 16:00:00 17.2 10 Sudeste 18 Sudeste 0 -- -- --
2018-10-05 15:00:00 19.1 8 Sudeste 16 Este 0 -- -- --
2018-10-05 14:00:00 18.3 8 Este 18 Sudeste 0 -- -- --
2018-10-05 13:00:00 17.3 5 Este 19 Sudeste 0 -- -- --
2018-10-05 12:00:00 16 6 Este 26 Sudeste 0 -- -- --
2018-10-05 11:00:00 14.5 19 Este 30 Sudeste 0 -- -- --
2018-10-05 10:00:00 13.7 14 Nordeste 25 Nordeste 0 -- -- --
2018-10-05 09:00:00 12.6 13 Nordeste 22 Nordeste 0 -- -- --
2018-10-05 08:00:00 12.8 18 Norte 31 Norte 0 -- -- --
2018-10-05 07:00:00 13.7 25 Norte 38 Norte 0 -- -- --
2018-10-05 06:00:00 13.4 19 Norte 26 Norte 0 -- -- --
2018-10-05 05:00:00 12.6 13 Norte 20 Nordeste 0 -- -- --
2018-10-05 04:00:00 12.3 10 Nordeste 17 Este 0 -- -- --
2018-10-05 03:00:00 12.6 8 Nordeste 17 Este 0 -- -- --
2018-10-05 02:00:00 12.7 14 Este 26 Sudeste 0 -- -- --
2018-10-05 01:00:00 12.8 18 Sudeste 28 Sudeste 0 -- -- --
2018-10-05 00:00:00 12.4 14 Sudeste 18 Sudeste 0 -- -- --
2018-10-04 23:00:00 12.8 11 Nordeste 16 Este 0 -- -- --
2018-10-04 22:00:00 12.4 8 Norte 26 Norte 0 -- -- --
2018-10-04 21:00:00 12.3 8 Norte 17 Noroeste 0 -- -- --
2018-10-04 20:00:00 12.5 12 Norte 33 Noroeste 0 -- -- --
2018-10-04 19:00:00 13 25 Norte 47 Noroeste 0 -- -- --
2018-10-04 18:00:00 13.4 35 Noroeste 58 Noroeste 0 -- -- --
2018-10-04 17:00:00 13.6 41 Noroeste 53 Noroeste 0 -- -- --
2018-10-04 16:00:00 13.8 42 Noroeste 60 Noroeste 0 -- -- --
2018-10-04 15:00:00 13.8 50 Noroeste 70 Noroeste 0 -- -- --
2018-10-04 14:00:00 13.8 53 Noroeste 72 Noroeste 0 -- -- --
2018-10-04 13:00:00 13.6 47 Noroeste 71 Noroeste 0 -- -- --
2018-10-04 12:00:00 13.5 40 Noroeste 62 Noroeste 0 -- -- --
2018-10-04 11:00:00 13.5 43 Noroeste 69 Norte 0 -- -- --
2018-10-04 10:00:00 13 43 Norte 68 Norte 0 -- -- --
2018-10-04 09:00:00 12.8 53 Norte 76 Norte 0 -- -- --
2018-10-04 08:00:00 12.4 59 Norte 84 Noroeste 0 -- -- --
2018-10-04 07:00:00 12.5 55 Norte 77 Noroeste 0 -- -- --
2018-10-04 06:00:00 12.7 50 Norte 79 Noroeste 0 -- -- --
2018-10-04 05:00:00 12.6 48 Norte 77 Noroeste 0 -- -- --
2018-10-04 04:00:00 13.1 51 Noroeste 72 Noroeste 0 -- -- --
2018-10-04 03:00:00 13.2 53 Noroeste 80 Noroeste 0 -- -- --
2018-10-04 02:00:00 13.3 57 Norte 78 Norte 0 -- -- --
2018-10-04 01:00:00 13.3 41 Norte 62 Noroeste 0 -- -- --
2018-10-04 00:00:00 13.8 32 Norte 53 Norte 0 -- -- --
2018-10-03 23:00:00 13.5 25 Norte 51 Norte 0 -- -- --
2018-10-03 22:00:00 12.9 26 Nordeste 37 Nordeste 0 -- -- --
2018-10-03 21:00:00 12.4 25 Noroeste 62 Norte 0 -- -- --
2018-10-03 20:00:00 13.4 37 Norte 67 Nordeste 0 -- -- --
2018-10-03 19:00:00 13.1 37 Norte 64 Norte 0 -- -- --
2018-10-03 18:00:00 13.5 36 Norte 73 Norte 0 -- -- --
2018-10-03 17:00:00 13.1 36 Norte 73 Norte 0 -- -- --
2018-10-03 16:00:00 12.7 44 Norte 77 Norte 0 -- -- --
2018-10-03 15:00:00 12.9 48 Norte 69 Noroeste 0 -- -- --
2018-10-03 14:00:00 12.9 42 Norte 74 Norte 0 -- -- --
2018-10-03 13:00:00 12.5 42 Norte 73 Norte 0 -- -- --
2018-10-03 12:00:00 12.6 40 Norte 80 Nordeste 0 -- -- --
2018-10-03 11:00:00 12.3 41 Norte 77 Nordeste 0 -- -- --
2018-10-03 10:00:00 12.1 45 Norte 74 Nordeste 0 -- -- --
2018-10-03 09:00:00 11.3 37 Norte 65 Nordeste 0 -- -- --
2018-10-03 08:00:00 11.3 35 Norte 65 Norte 0 -- -- --
2018-10-03 07:00:00 11.2 37 Norte 65 Norte 0 -- -- --
2018-10-03 06:00:00 11.7 33 Norte 63 Nordeste 0 -- -- --
2018-10-03 05:00:00 11.8 40 Norte 76 Nordeste 0 -- -- --
2018-10-03 04:00:00 11.7 51 Norte 78 Nordeste 0 -- -- --
2018-10-03 03:00:00 11.8 40 Norte 68 Noroeste 0 -- -- --
2018-10-03 02:00:00 11.8 37 Norte 60 Norte 0 -- -- --
2018-10-03 01:00:00 11.9 34 Norte 60 Norte 0 -- -- --
2018-10-03 00:00:00 11.5 34 Norte 53 Noroeste 0 -- -- --
2018-10-02 23:00:00 11.2 26 Norte 44 Norte 0 -- -- --
2018-10-02 22:00:00 11 19 Norte 34 Norte 0 -- -- --
2018-10-02 21:00:00 10.7 17 Norte 37 Noroeste 0 -- -- --
2018-10-02 20:00:00 11.2 26 Noroeste 43 Norte 0 -- -- --
2018-10-02 19:00:00 12.1 29 Noroeste 44 Noroeste 0 -- -- --
2018-10-02 18:00:00 13.1 16 Norte 36 Norte 0 -- -- --
2018-10-02 17:00:00 12.6 23 Norte 42 Norte 0 -- -- --
2018-10-02 16:00:00 13.3 18 Norte 35 Nordeste 0 -- -- --
2018-10-02 15:00:00 13.6 17 Norte 31 Norte 0 -- -- --
2018-10-02 14:00:00 14.2 17 Noroeste 30 Noroeste 0 -- -- --
2018-10-02 13:00:00 13.5 18 Noroeste 33 Noroeste 0 -- -- --
2018-10-02 12:00:00 12.9 16 Noroeste 32 Norte 0 -- -- --
2018-10-02 11:00:00 11.5 17 Noroeste 35 Noroeste 0 -- -- --
2018-10-02 10:00:00 11.3 18 Noroeste 35 Noroeste 0 -- -- --
2018-10-02 09:00:00 11.1 20 Noroeste 48 Noroeste 0 -- -- --
2018-10-02 08:00:00 10.7 22 Noroeste 36 Noroeste 0 -- -- --
2018-10-02 07:00:00 10.5 19 Noroeste 31 Norte 0 -- -- --
2018-10-02 06:00:00 10.5 18 Norte 28 Norte 0 -- -- --
2018-10-02 05:00:00 10 15 Noroeste 27 Noroeste 0 -- -- --
2018-10-02 04:00:00 10.4 19 Norte 30 Norte 0 -- -- --
2018-10-02 03:00:00 10.7 18 Norte 31 Norte 0 -- -- --
2018-10-02 02:00:00 10.3 15 Nordeste 22 Este 0 -- -- --
2018-10-02 01:00:00 10.6 14 Este 18 Este 0 -- -- --
2018-10-02 00:00:00 11.2 13 Nordeste 22 Nordeste 0 -- -- --
2018-10-01 23:00:00 11.6 14 Nordeste 22 Nordeste 0 -- -- --
2018-10-01 22:00:00 11.7 14 Este 29 Sudeste 0 -- -- --
2018-10-01 21:00:00 12.2 20 Este 30 Sudeste 0 -- -- --
2018-10-01 20:00:00 13.2 3 Norte 22 Este 0 -- -- --
2018-10-01 19:00:00 13.5 11 Este 23 Sudeste 0 -- -- --
2018-10-01 18:00:00 14.3 13 Este 20 Este 0 -- -- --
2018-10-01 17:00:00 14.3 11 Norte 24 Noroeste 0 -- -- --
2018-10-01 16:00:00 16.4 3 Norte 23 Nordeste 0 -- -- --
2018-10-01 15:00:00 17.2 6 Nordeste 24 Sudeste 0 -- -- --
2018-10-01 14:00:00 17.7 9 Sudeste 21 Sudeste 0 -- -- --
2018-10-01 13:00:00 15.7 7 Norte 22 Norte 0 -- -- --
2018-10-01 12:00:00 15.4 14 Noroeste 29 Noroeste 0 -- -- --
2018-10-01 11:00:00 14 23 Noroeste 34 Noroeste 0 -- -- --
2018-10-01 10:00:00 13.4 24 Noroeste 42 Noroeste 0 -- -- --
2018-10-01 09:00:00 13.3 27 Noroeste 64 Norte 0 -- -- --
2018-10-01 08:00:00 15 22 Noroeste 30 Noroeste 0 -- -- --
2018-10-01 07:00:00 14.8 17 Noroeste 27 Noroeste 0 -- -- --
2018-10-01 06:00:00 14.2 15 Noroeste 22 Noroeste 0 -- -- --
2018-10-01 05:00:00 14.1 10 Noroeste 20 Noroeste 0 -- -- --
2018-10-01 04:00:00 14.5 16 Noroeste 23 Noroeste 0 -- -- --
2018-10-01 03:00:00 14.4 7 Norte 16 Norte 0 -- -- --
2018-10-01 02:00:00 14.3 11 Noroeste 14 Noroeste 0 -- -- --
2018-10-01 01:00:00 15 5 Noroeste 17 Sudoeste 0 -- -- --
2018-10-01 00:00:00 15.9 10 Sudoeste 19 Sudoeste 0 -- -- --
2018-09-30 23:00:00 15.8 14 Sur 19 Sur 0 -- -- --
2018-09-30 22:00:00 15.3 13 Sur 18 Sur 0 -- -- --
2018-09-30 21:00:00 15.7 13 Sur 18 Sur 0 -- -- --
2018-09-30 20:00:00 15.2 13 Sur 27 Sur 0 -- -- --
2018-09-30 19:00:00 16.4 19 Sur 32 Sur 0 -- -- --
2018-09-30 18:00:00 18 15 Sur 29 Sur 0 -- -- --
2018-09-30 17:00:00 19 13 Sur 26 Sudoeste 0 -- -- --
2018-09-30 16:00:00 19.8 14 Sudoeste 32 Sudoeste 0 -- -- --
2018-09-30 15:00:00 20.5 14 Sudoeste 30 Sudoeste 0 -- -- --
2018-09-30 14:00:00 20 13 Sur 34 Sur 0 -- -- --
2018-09-30 13:00:00 19.8 17 Sur 29 Sur 0 -- -- --
2018-09-30 12:00:00 19.4 14 Sur 23 Sudeste 0 -- -- --
2018-09-30 11:00:00 19.1 12 Sur 23 Sudeste 0 -- -- --
2018-09-30 10:00:00 17.9 16 Sur 27 Sur 0 -- -- --
2018-09-30 09:00:00 16.4 18 Sur 29 Sur 0 -- -- --
2018-09-30 08:00:00 14.9 21 Sur 33 Sur 0 -- -- --
2018-09-30 07:00:00 14.6 22 Sur 30 Sur 0 -- -- --
2018-09-30 06:00:00 14.6 23 Sur 30 Sur 0 -- -- --
2018-09-30 05:00:00 14.8 19 Sur 28 Sur 0 -- -- --
2018-09-30 04:00:00 15 19 Sur 28 Sur 0 -- -- --
2018-09-30 03:00:00 15.3 20 Sur 31 Sur 0 -- -- --
2018-09-30 02:00:00 15.3 19 Sur 34 Sur 0 -- -- --
2018-09-30 01:00:00 15.2 24 Sur 34 Sur 0 -- -- --
2018-09-30 00:00:00 15.1 26 Sur 33 Sur 0 -- -- --
2018-09-29 23:00:00 15.1 22 Sur 28 Sur 0 -- -- --
2018-09-29 22:00:00 15.9 18 Sur 26 Sur 0 -- -- --
2018-09-29 21:00:00 15.7 18 Sur 23 Sur 0 -- -- --
2018-09-29 20:00:00 16.3 11 Sur 24 Sur 0 -- -- --
2018-09-29 19:00:00 16.9 14 Sur 25 Sur 0 -- -- --
2018-09-29 18:00:00 18.1 10 Sur 20 Sur 0 -- -- --
2018-09-29 17:00:00 19.6 12 Sudoeste 26 Sur 0 -- -- --
2018-09-29 16:00:00 20.4 12 Sur 26 Sudoeste 0 -- -- --
2018-09-29 15:00:00 21.3 11 Sudeste 28 Sur 0 -- -- --
2018-09-29 14:00:00 21 10 Sudeste 24 Sudeste 0 -- -- --
2018-09-29 13:00:00 21.7 9 Sur 25 Sudeste 0 -- -- --
2018-09-29 12:00:00 20.6 16 Sudeste 25 Sudeste 0 -- -- --
2018-09-29 11:00:00 20.5 12 Sur 21 Sudeste 0 -- -- --
2018-09-29 10:00:00 19.6 12 Sudeste 27 Sudeste 0 -- -- --
2018-09-29 09:00:00 18.2 17 Este 27 Este 0 -- -- --
2018-09-29 08:00:00 17.1 23 Este 30 Este 0 -- -- --
2018-09-29 07:00:00 16.9 13 Nordeste 25 Norte 0 -- -- --
2018-09-29 06:00:00 16.8 22 Norte 28 Norte 0 -- -- --
2018-09-29 05:00:00 16.7 21 Norte 35 Norte 0 -- -- --
2018-09-29 04:00:00 16.6 24 Norte 29 Norte 0 -- -- --
2018-09-29 03:00:00 16.6 21 Norte 27 Norte 0 -- -- --
2018-09-29 02:00:00 16.6 13 Norte 20 Nordeste 0 -- -- --
2018-09-29 01:00:00 16.7 16 Nordeste 28 Nordeste 0 -- -- --
2018-09-29 00:00:00 16.8 14 Norte 27 Norte 0 -- -- --
2018-09-28 23:00:00 16.8 22 Norte 40 Nordeste 0 -- -- --
2018-09-28 22:00:00 17 22 Norte 32 Nordeste 0 -- -- --
2018-09-28 21:00:00 16.6 23 Nordeste 39 Nordeste 0 -- -- --
2018-09-28 20:00:00 16.8 22 Nordeste 33 Nordeste 0 -- -- --
2018-09-28 19:00:00 17.4 12 Este 19 Este 0 -- -- --
2018-09-28 18:00:00 19.4 12 Este 22 Sudeste 0 -- -- --
2018-09-28 17:00:00 19.1 14 Nordeste 26 Nordeste 0 -- -- --
2018-09-28 16:00:00 17.5 7 Nordeste 17 Nordeste 0 -- -- --
2018-09-28 15:00:00 19.5 11 Este 28 Nordeste 0 -- -- --
2018-09-28 14:00:00 19.5 8 Nordeste 20 Nordeste 0 -- -- --
2018-09-28 13:00:00 18.6 8 Este 30 Este 0 -- -- --
2018-09-28 12:00:00 17.3 10 Nordeste 23 Nordeste 0 -- -- --
2018-09-28 11:00:00 17.3 11 Nordeste 17 Norte 0 -- -- --
2018-09-28 10:00:00 16.8 10 Nordeste 13 Nordeste 0 -- -- --
2018-09-28 09:00:00 16.7 10 Nordeste 17 Nordeste 0 -- -- --
2018-09-28 08:00:00 16 14 Nordeste 18 Nordeste 0 -- -- --
2018-09-28 07:00:00 14.8 13 Nordeste 17 Nordeste 0 -- -- --
2018-09-28 06:00:00 14.1 12 Nordeste 17 Nordeste 0 -- -- --
2018-09-28 05:00:00 14.2 13 Norte 26 Nordeste 0 -- -- --
2018-09-28 04:00:00 13.8 16 Norte 22 Norte 0 -- -- --
2018-09-28 03:00:00 13.4 13 Norte 16 Norte 0 -- -- --
2018-09-28 02:00:00 12.4 13 Noroeste 18 Noroeste 0 -- -- --
2018-09-28 01:00:00 13.1 16 Noroeste 28 Noroeste 0 -- -- --
2018-09-28 00:00:00 13.3 22 Noroeste 31 Noroeste 0 -- -- --
2018-09-27 23:00:00 13.6 20 Noroeste 27 Noroeste 0 -- -- --
2018-09-27 22:00:00 13.8 19 Noroeste 24 Noroeste 0 -- -- --
2018-09-27 21:00:00 14.1 9 Oeste 15 Oeste 0 -- -- --
2018-09-27 20:00:00 14.5 9 Sudoeste 15 Sudoeste 0 -- -- --
2018-09-27 19:00:00 16.1 5 Sudoeste 15 Sudoeste 0 -- -- --
2018-09-27 18:00:00 17.2 3 Sur 12 Sur 0 -- -- --
2018-09-27 17:00:00 16.8 2 Este 13 Sudeste 0 -- -- --
2018-09-27 16:00:00 16.3 5 Norte 12 Nordeste 0 -- -- --
2018-09-27 15:00:00 17.8 0 Calma 17 Nordeste 0 -- -- --
2018-09-27 14:00:00 17.2 7 Sudeste 18 Sudeste 0 -- -- --
2018-09-27 13:00:00 17.5 7 Sur 17 Sur 0 -- -- --
2018-09-27 12:00:00 19.2 4 Sudeste 14 Sur 0 -- -- --
2018-09-27 11:00:00 16.8 8 Sudeste 21 Sudeste 0 -- -- --
2018-09-27 10:00:00 14.6 16 Sudeste 24 Sudeste 0 -- -- --
2018-09-27 09:00:00 14.2 20 Sudeste 36 Sudeste 0 -- -- --
2018-09-27 08:00:00 11.8 25 Sudeste 35 Sudeste 0 -- -- --
2018-09-27 07:00:00 11.7 25 Sudeste 36 Sudeste 0 -- -- --
2018-09-27 06:00:00 11.6 27 Sudeste 39 Este 0 -- -- --
2018-09-27 05:00:00 11.7 30 Este 40 Sudeste 0 -- -- --
2018-09-27 04:00:00 11.7 31 Este 46 Este 0 -- -- --
2018-09-27 03:00:00 11.7 35 Este 46 Sudeste 0 -- -- --
2018-09-27 02:00:00 11.8 35 Este 45 Este 0 -- -- --
2018-09-27 01:00:00 11.8 34 Este 46 Sudeste 0 -- -- --
2018-09-27 00:00:00 12.1 33 Sudeste 44 Sudeste 0 -- -- --
2018-09-26 23:00:00 12.6 24 Este 42 Este 0 -- -- --
2018-09-26 22:00:00 13.1 28 Este 41 Sudeste 0 -- -- --
2018-09-26 21:00:00 13.2 28 Este 43 Este 0 -- -- --
2018-09-26 20:00:00 13.8 27 Sudeste 40 Sudeste 0 -- -- --
2018-09-26 19:00:00 14.6 27 Este 41 Sudeste 0 -- -- --
2018-09-26 18:00:00 15.6 28 Este 40 Sudeste 0 -- -- --
2018-09-26 17:00:00 16.7 32 Este 48 Este 0 -- -- --
2018-09-26 16:00:00 17.7 30 Sudeste 44 Sudeste 0 -- -- --
2018-09-26 15:00:00 18.4 29 Sudeste 41 Este 0 -- -- --
2018-09-26 14:00:00 18.5 30 Sudeste 42 Este 0 -- -- --
2018-09-26 13:00:00 18.5 25 Este 39 Sudeste 0 -- -- --
2018-09-26 12:00:00 17.5 24 Este 35 Este 0 -- -- --
2018-09-26 11:00:00 17.5 13 Este 37 Este 0 -- -- --
2018-09-26 10:00:00 15.7 25 Este 43 Este 0 -- -- --
2018-09-26 09:00:00 14.5 24 Este 41 Este 0 -- -- --
2018-09-26 08:00:00 13.7 22 Este 42 Este 0 -- -- --
2018-09-26 07:00:00 14 25 Este 44 Este 0 -- -- --
2018-09-26 06:00:00 14.5 25 Este 46 Este 0 -- -- --
2018-09-26 05:00:00 14.5 23 Este 46 Este 0 -- -- --
2018-09-26 04:00:00 14.8 18 Este 41 Este 0 -- -- --
2018-09-26 03:00:00 15 24 Este 44 Este 0 -- -- --
2018-09-26 02:00:00 14.9 31 Este 47 Este 0 -- -- --
2018-09-26 01:00:00 15.1 24 Este 42 Este 0 -- -- --
2018-09-26 00:00:00 15 27 Este 43 Este 0 -- -- --
2018-09-25 23:00:00 15.1 32 Este 48 Este 0.1 -- -- --
2018-09-25 22:00:00 15.7 28 Este 48 Este 1.9 -- -- --
2018-09-25 21:00:00 16 20 Este 38 Sudeste 0 -- -- --
2018-09-25 20:00:00 15.9 21 Nordeste 35 Noroeste 0 -- -- --
2018-09-25 19:00:00 15 24 Noroeste 44 Noroeste 0 -- -- --
2018-09-25 18:00:00 15.7 33 Noroeste 51 Noroeste 0 -- -- --
2018-09-25 17:00:00 15.7 38 Noroeste 48 Noroeste 0 -- -- --
2018-09-25 16:00:00 16.1 33 Noroeste 48 Noroeste 0 -- -- --
2018-09-25 15:00:00 16.5 30 Noroeste 43 Noroeste 0 -- -- --
2018-09-25 14:00:00 16.1 24 Noroeste 36 Noroeste 0 -- -- --
2018-09-25 13:00:00 16.7 22 Noroeste 32 Noroeste 0 -- -- --
2018-09-25 12:00:00 17.5 10 Noroeste 17 Norte 0 -- -- --
2018-09-25 11:00:00 17.7 4 Nordeste 22 Norte 0 -- -- --
2018-09-25 10:00:00 16.8 13 Norte 19 Nordeste 0 -- -- --
2018-09-25 09:00:00 16.5 10 Noroeste 23 Norte 0 -- -- --
2018-09-25 08:00:00 15.9 15 Norte 21 Norte 0 -- -- --
2018-09-25 07:00:00 16.5 15 Norte 27 Noroeste 0 -- -- --
2018-09-25 06:00:00 16.1 16 Noroeste 24 Noroeste 0 -- -- --
2018-09-25 05:00:00 14.5 5 Norte 32 Este 0 -- -- --
2018-09-25 04:00:00 13.4 18 Sudeste 38 Este 0 -- -- --
2018-09-25 03:00:00 13.3 25 Sudeste 37 Este 0 -- -- --
2018-09-25 02:00:00 13.9 26 Este 42 Sudeste 0 -- -- --
2018-09-25 01:00:00 14.4 28 Sudeste 40 Este 0 -- -- --
2018-09-25 00:00:00 15.2 29 Este 39 Sudeste 0 -- -- --
2018-09-24 23:00:00 16.6 22 Sudeste 32 Sudeste 0 -- -- --
2018-09-24 22:00:00 17 20 Sudeste 27 Sudeste 0 -- -- --
2018-09-24 21:00:00 16.8 19 Sur 27 Sudeste 0 -- -- --
2018-09-24 20:00:00 17.2 20 Sur 30 Sur 0 -- -- --
2018-09-24 19:00:00 18.2 23 Sur 36 Sur 0 -- -- --
2018-09-24 18:00:00 20.6 14 Sur 25 Sur 0 -- -- --
2018-09-24 17:00:00 21.7 12 Sur 23 Sudoeste 0 -- -- --
2018-09-24 16:00:00 22.1 12 Sudoeste 23 Sudoeste 0 -- -- --
2018-09-24 15:00:00 23.4 12 Sur 24 Sudoeste 0 -- -- --
2018-09-24 14:00:00 23.8 13 Sur 24 Sur 0 -- -- --
2018-09-24 13:00:00 23.5 11 Sur 25 Sur 0 -- -- --
2018-09-24 12:00:00 22.9 7 Sur 16 Sudeste 0 -- -- --
2018-09-24 11:00:00 22.9 9 Sur 18 Sur 0 -- -- --
2018-09-24 10:00:00 21.7 11 Sudeste 17 Sur 0 -- -- --
2018-09-24 09:00:00 20.6 14 Sudeste 17 Sudeste 0 -- -- --
2018-09-24 08:00:00 19 10 Sudeste 13 Sur 0 -- -- --
2018-09-24 07:00:00 19.4 8 Este 11 Nordeste 0 -- -- --
2018-09-24 06:00:00 20 6 Norte 10 Sudeste 0 -- -- --
2018-09-24 05:00:00 20.1 7 Este 21 Norte 0 -- -- --
2018-09-24 04:00:00 19.5 19 Norte 24 Norte 0 -- -- --
2018-09-24 03:00:00 19.4 20 Norte 26 Noroeste 0 -- -- --
2018-09-24 02:00:00 19.5 22 Noroeste 29 Noroeste 0 -- -- --
2018-09-24 01:00:00 19.7 20 Noroeste 25 Noroeste 0 -- -- --
2018-09-24 00:00:00 20 17 Noroeste 26 Oeste 0 -- -- --
2018-09-23 23:00:00 20.7 14 Oeste 28 Oeste 0 -- -- --
2018-09-23 22:00:00 20.8 21 Oeste 31 Oeste 0 -- -- --
2018-09-23 21:00:00 19.1 17 Sudoeste 27 Sur 0 -- -- --
2018-09-23 20:00:00 18 17 Sur 24 Sur 0 -- -- --
2018-09-23 19:00:00 18.7 19 Sur 30 Sur 0 -- -- --
2018-09-23 18:00:00 19.5 20 Sur 31 Sur 0 -- -- --
2018-09-23 17:00:00 20.3 22 Sur 38 Sur 0 -- -- --
2018-09-23 16:00:00 21.6 20 Sur 33 Sur 0 -- -- --
2018-09-23 15:00:00 22.2 19 Sur 32 Sur 0 -- -- --
2018-09-23 14:00:00 23 18 Sur 32 Sur 0 -- -- --
2018-09-23 13:00:00 23.5 18 Sur 30 Sur 0 -- -- --
2018-09-23 12:00:00 22.7 19 Sur 35 Sur 0 -- -- --
2018-09-23 11:00:00 21.8 22 Sur 32 Sur 0 -- -- --
2018-09-23 10:00:00 21.7 22 Sur 32 Sur 0 -- -- --
2018-09-23 09:00:00 20.4 22 Sudeste 30 Sudeste 0 -- -- --
2018-09-23 08:00:00 19.2 21 Sudeste 26 Sudeste 0 -- -- --
2018-09-23 07:00:00 19.4 15 Sudeste 19 Sudeste 0 -- -- --
2018-09-23 06:00:00 19.8 10 Sudeste 13 Sudeste 0 -- -- --
2018-09-23 05:00:00 20.4 8 Nordeste 10 Nordeste 0 -- -- --
2018-09-23 04:00:00 20.5 4 Nordeste 6 Nordeste 0 -- -- --
2018-09-23 03:00:00 20.6 4 Este 13 Norte 0 -- -- --
2018-09-23 02:00:00 19.9 9 Norte 15 Norte 0 -- -- --
2018-09-23 01:00:00 20 12 Norte 19 Noroeste 0 -- -- --
2018-09-23 00:00:00 20 15 Noroeste 29 Noroeste 0 -- -- --
2018-09-22 23:00:00 20.1 21 Noroeste 28 Noroeste 0 -- -- --
2018-09-22 22:00:00 20 15 Noroeste 44 Oeste 0 -- -- --
2018-09-22 21:00:00 20.7 15 Oeste 23 Oeste 0 -- -- --
2018-09-22 20:00:00 20.4 12 Oeste 17 Oeste 0 -- -- --
2018-09-22 19:00:00 19.6 5 Sudoeste 16 Oeste 0 -- -- --
2018-09-22 18:00:00 20.8 6 Sudoeste 16 Sur 0 -- -- --
2018-09-22 17:00:00 20.4 11 Sur 19 Sudoeste 0 -- -- --
2018-09-22 16:00:00 21 11 Sur 20 Sudoeste 0 -- -- --
2018-09-22 15:00:00 22.2 8 Sudoeste 19 Sudoeste 0 -- -- --
2018-09-22 14:00:00 22 9 Sudoeste 18 Sudoeste 0 -- -- --
2018-09-22 13:00:00 21.8 6 Sur 16 Sur 0 -- -- --
2018-09-22 12:00:00 20.9 9 Sur 18 Sur 0 -- -- --
2018-09-22 11:00:00 20.6 6 Sur 13 Sur 0 -- -- --
2018-09-22 10:00:00 19.6 10 Sur 16 Sur 0 -- -- --
2018-09-22 09:00:00 18.5 8 Sur 16 Sudeste 0 -- -- --
2018-09-22 08:00:00 18 6 Sudeste 15 Este 0 -- -- --
2018-09-22 07:00:00 17.3 10 Sudeste 15 Este 0 -- -- --
2018-09-22 06:00:00 17.3 9 Este 14 Este 0 -- -- --
2018-09-22 05:00:00 18.7 5 Sur 12 Oeste 0 -- -- --
2018-09-22 04:00:00 19.3 6 Oeste 11 Oeste 0 -- -- --
2018-09-22 03:00:00 18.7 7 Noroeste 13 Noroeste 0 -- -- --
2018-09-22 02:00:00 18.5 7 Noroeste 9 Noroeste 0 -- -- --
2018-09-22 01:00:00 18.9 3 Sudoeste 9 Noroeste 0 -- -- --
2018-09-22 00:00:00 19 8 Noroeste 13 Norte 0 -- -- --
2018-09-21 23:00:00 19 4 Noroeste 11 Noroeste 0 -- -- --
2018-09-21 22:00:00 19.8 6 Noroeste 9 Noroeste 0 -- -- --
2018-09-21 21:00:00 20 5 Sur 12 Sur 0 -- -- --
2018-09-21 20:00:00 19.7 10 Sur 12 Sur 0 -- -- --
2018-09-21 19:00:00 20.7 5 Sur 12 Sur 0 -- -- --
2018-09-21 18:00:00 21.7 7 Sur 14 Sudoeste 0 -- -- --
2018-09-21 17:00:00 21.7 2 Oeste 10 Noroeste 0 -- -- --
2018-09-21 16:00:00 22.5 3 Oeste 16 Sudoeste 0 -- -- --
2018-09-21 15:00:00 22 9 Norte 14 Nordeste 0 -- -- --
2018-09-21 14:00:00 21.8 4 Nordeste 13 Nordeste 0 -- -- --
2018-09-21 13:00:00 22.3 5 Noroeste 15 Sur 0 -- -- --
2018-09-21 12:00:00 22.7 6 Sur -- -- -- -- -- --
2018-09-21 11:00:00 -- -- -- -- -- -- -- -- --
2018-09-21 10:00:00 -- -- -- -- -- -- -- -- --
2018-09-21 09:00:00 -- -- -- -- -- -- -- -- --
2018-09-21 08:00:00 -- -- -- -- -- -- -- -- --
2018-09-21 07:00:00 -- -- -- -- -- -- -- -- --
2018-09-21 06:00:00 -- -- -- -- -- -- -- -- --
2018-09-21 05:00:00 -- -- -- -- -- -- -- -- --
2018-09-21 04:00:00 -- -- -- -- -- -- -- -- --
2018-09-21 03:00:00 -- -- -- -- -- -- -- -- --
2018-09-21 02:00:00 -- -- -- -- -- -- -- -- --
2018-09-21 01:00:00 -- -- -- -- -- -- -- -- --
2018-09-21 00:00:00 -- -- -- -- -- -- -- -- --
2018-09-20 23:00:00 -- -- -- -- -- -- -- -- --
2018-09-20 22:00:00 -- -- -- -- -- -- -- -- --
2018-09-20 21:00:00 -- -- -- -- -- -- -- -- --
2018-09-20 20:00:00 17.6 8 Sur 11 Sur 0 -- -- --
2018-09-20 19:00:00 19.3 4 Sudoeste 14 Sur 0 -- -- --
2018-09-20 18:00:00 -- 6 Sur 17 Sudoeste 0 -- -- --
2018-09-20 17:00:00 21.4 6 Sur -- -- -- -- -- --
2018-09-20 16:00:00 22.4 10 Sudeste 19 Sudoeste 0 -- -- --
2018-09-20 15:00:00 23.7 5 Sudoeste 17 Sur 0 -- -- --
2018-09-20 14:00:00 21.7 5 Sur 17 Sur 0 -- -- --
2018-09-20 13:00:00 21.6 4 Oeste 16 Sudeste 0 -- -- --
2018-09-20 12:00:00 -- -- -- -- -- -- -- -- --
2018-09-20 11:00:00 -- -- -- -- -- -- -- -- --
2018-09-20 10:00:00 -- -- -- -- -- -- -- -- --
2018-09-20 09:00:00 -- -- -- -- -- -- -- -- --
2018-09-20 08:00:00 -- -- -- -- -- -- -- -- --
2018-09-20 07:00:00 -- -- -- -- -- -- -- -- --
2018-09-20 06:00:00 -- -- -- -- -- -- -- -- --
2018-09-20 05:00:00 -- -- -- -- -- -- -- -- --
2018-09-20 04:00:00 -- -- -- -- -- -- -- -- --
2018-09-20 03:00:00 -- -- -- -- -- -- -- -- --
2018-09-20 02:00:00 -- -- -- -- -- -- -- -- --
2018-09-20 01:00:00 -- -- -- -- -- -- -- -- --
2018-09-20 00:00:00 -- -- -- -- -- -- -- -- --